Regional Weather Roundup
Issued by NWS Austin/San Antonio, TX

Home | Current Version | Previous Version | Text Only | Print | Product List | Glossary On
Versions: 1 2 3 4 5 6 7 8 9 10 11 12 13 14 15 16 17 18 19 20 21 22 23 24 25 26 27 28 29 30 31 32 33 34 35 36 37 38 39 40 41 42 43 44 45 46 47 48 49 50
456
ASUS44 KEWX 201201
RWREWX
SOUTH TEXAS REGIONAL WEATHER ROUNDUP
NATIONAL WEATHER SERVICE AUSTIN/SAN ANTONIO TX
600 AM CST MON NOV 20 2017

NOTE: "FAIR" INDICATED FEW OR NO CLOUDS BELOW 12,000 FEET WITH NO
SIGNIFICANT WEATHER AND/OR OBSTRUCTIONS TO VISIBILITY.

* - THESE STATIONS ARE NOT NWS OR FAA STATIONS...AND ARE NOT SUBJECT
    TO NWS AND FAA QUALITY CONTROL.

TXZ171-172-183>190-201300-
TEXAS HILL COUNTRY AND EDWARDS PLATEAU

CITY           SKY/WX    TMP DP  RH WIND       PRES   REMARKS
JUNCTION       CLEAR     31  27  85 W3        30.15S
6HR MIN TEMP:  31; 6HR MAX TEMP:  38;

*LLANO         PTCLDY    32  30  93 CALM      30.21S
BURNET         PTCLDY    38  30  73 N3        30.19S
6HR MIN TEMP:  36; 6HR MAX TEMP:  43;

*HORSESHOE BAY PTCLDY    34  32  92 CALM      30.17F
6HR MIN TEMP:  34; 6HR MAX TEMP:  37;

*KERRVILLE     PTCLDY    33  32  94 CALM      30.17S
6HR MIN TEMP:  33; 6HR MAX TEMP:  40;

*FREDERICKSBRG PTCLDY    32  29  90 NW3       30.17S
6HR MIN TEMP:  32; 6HR MAX TEMP:  37;

*ROCKSPRINGS   NOT AVBL
*BOERNE STAGE  PTCLDY    34  32  93 CALM      30.18S
*CASTROVILLE   PTCLDY    40  34  76 NW3       30.20S
HONDO          PTCLDY    41  30  65 NE3       30.17F
6HR MIN TEMP:  40; 6HR MAX TEMP:  49;

*UVALDE        PTCLDY    40  32  73 NE8       30.17S WCI  35
6HR MIN TEMP:  40; 6HR MAX TEMP:  46;

DEL RIO        CLEAR     42  32  67 E7        30.13F WCI  38
6HR MIN TEMP:  42; 6HR MAX TEMP:  48;

LAUGHLIN AFB   CLEAR     40  32  72 E5        30.14S WCI  37
6HR MIN TEMP:  39; 6HR MAX TEMP:  43;

CARRIZO SPRGS  CLOUDY    39  36  87 CALM      30.16S
*EAGLE PASS    MOSUNNY   41  34  75 E5        30.15S WCI  38
$$

TXZ173-191>194-202-209-217>225-228-201300-
CENTRAL AND SOUTH CENTRAL TEXAS

CITY           SKY/WX    TMP DP  RH WIND       PRES   REMARKS
GEORGETOWN     PTCLDY    37  33  85 CALM      30.20F
6HR MIN TEMP:  35; 6HR MAX TEMP:  42;

AUSTIN/BERGSTM CLOUDY    39  37  92 CALM      30.19S
6HR MIN TEMP:  37; 6HR MAX TEMP:  42;

AUSTIN/MABRY   PTCLDY    41  36  82 CALM      30.20S
6HR MIN TEMP:  40; 6HR MAX TEMP:  45;

*AUSTIN/EXEC   PTCLDY    41  34  75 CALM      30.20R
*LAGO VISTA    CLOUDY    47  33  58 S3        30.18S
6HR MIN TEMP:  43; 6HR MAX TEMP:  51;

SAN MARCOS     PTCLDY    38  32  79 CALM      30.20S
6HR MIN TEMP:  37; 6HR MAX TEMP:  43;

NEW BRAUNFELS  PTCLDY    40  34  79 N3        30.17F
6HR MIN TEMP:  39; 6HR MAX TEMP:  44;

RANDOLPH AFB   PTCLDY    41  35  78 N3        30.18S
6HR MIN TEMP:  41; 6HR MAX TEMP:  45;

PT SAN ANTONIO PTCLDY    42  37  83 CALM      30.16S
6HR MIN TEMP:  41; 6HR MAX TEMP:  47;

SAN ANTONIO    MOCLDY    44  35  70 NW3       30.19S
6HR MIN TEMP:  42; 6HR MAX TEMP:  48;

STINSON FIELD  PTCLDY    44  38  79 CALM      30.17S
6HR MIN TEMP:  43; 6HR MAX TEMP:  49;

*LA GRANGE     PTCLDY    40  38  95 CALM      30.19R
*GIDDINGS      PTCLDY    40  37  87 CALM      30.20S
6HR MIN TEMP:  39; 6HR MAX TEMP:  43;

*GONZALES      PTCLDY    40  37  87 CALM      30.19S
6HR MIN TEMP:  40; 6HR MAX TEMP:  47;

$$

TXZ163>164-176>182-195>201-210>213-226-227-235-201300-
SOUTHEAST TEXAS

CITY           SKY/WX    TMP DP  RH WIND       PRES   REMARKS
COLLEGE STN    PTCLDY    45  36  70 E5        30.20S WCI  43
6HR MIN TEMP:  41; 6HR MAX TEMP:  51;

*BRYAN         PTCLDY    39  35  84 E3        30.22R
6HR MIN TEMP:  37; 6HR MAX TEMP:  46;

*CALDWELL      PTCLDY    38  36  92 CALM      30.20S
6HR MIN TEMP:  37; 6HR MAX TEMP:  44;

*CROCKETT        N/A    N/A N/A N/A MISG        N/A
*BRENHAM       PTCLDY    40  39  95 CALM      30.21S
HUNTSVILLE     PTCLDY    38  36  92 CALM      30.21R
6HR MIN TEMP:  37; 6HR MAX TEMP:  43;

CONROE         CLOUDY    36  36 100 CALM      30.22R
6HR MIN TEMP:  36; 6HR MAX TEMP:  39;

HOUSTON BUSH   CLOUDY    43  39  86 CALM      30.21S
6HR MIN TEMP:  41; 6HR MAX TEMP:  47;

HOUSTON HOBBY  MOCLDY    48  39  71 E5        30.20S WCI  46
6HR MIN TEMP:  46; 6HR MAX TEMP:  50;

*HOUSTON SW AP PTCLDY    44  42  91 CALM      30.21R
6HR MIN TEMP:  41; 6HR MAX TEMP:  46;

PEARLAND       PTCLDY    49  42  77 N3        30.22S
6HR MIN TEMP:  46; 6HR MAX TEMP:  50;

HOUSTON HOOKS  PTCLDY    42  41  96 NE3       30.21S
6HR MIN TEMP:  41; 6HR MAX TEMP:  44;

ELLINGTON FLD  NOT AVBL
SUGAR LAND     PTCLDY    46  41  82 NE5       30.20R WCI  44
6HR MIN TEMP:  43; 6HR MAX TEMP:  48;

*HOUSTON EXEC  PTCLDY    43  41  93 E6        30.21S WCI  39
*CLEVELAND MUN PTCLDY    37  36  95 CALM      30.23R
6HR MIN TEMP:  37; 6HR MAX TEMP:  40;

*WHARTON       CLEAR     44  38  79 CALM      30.20S
6HR MIN TEMP:  42; 6HR MAX TEMP:  47;

*COLUMBUS      FAIR      39  38  94 CALM      30.22R
6HR MIN TEMP:  38; 6HR MAX TEMP:  45;

*EAGLE LAKE    MOSUNNY   42  40  91 CALM      30.20R
6HR MIN TEMP:  42; 6HR MAX TEMP:  47;

$$

TXZ214>216-236>238-201300-
THE UPPER TEXAS COAST

CITY           SKY/WX    TMP DP  RH WIND       PRES   REMARKS
*ORANGE        PTCLDY    38  38 100 CALM      30.24S
6HR MIN TEMP:  38; 6HR MAX TEMP:  44;

PORT ARTHUR    PTCLDY    45  36  70 NE6       30.21S WCI  42
6HR MIN TEMP:  42; 6HR MAX TEMP:  48;

GALVESTON      PTCLDY    58  43  57 NE10      30.21R
6HR MIN TEMP:  57; 6HR MAX TEMP:  58;

ANGLETON       PTCLDY    45  41  86 NE6       30.19S WCI  42
6HR MIN TEMP:  44; 6HR MAX TEMP:  49;

*BAY CITY      CLEAR     49  42  78 NE6       30.18F WCI  46
PALACIOS       CLEAR     44  40  85 NE8       30.18S WCI  39
6HR MIN TEMP:  44; 6HR MAX TEMP:  50;

$$

TXZ229>234-239>247-201300-
TEXAS COASTAL BEND AND RIO GRANDE PLAINS

CITY           SKY/WX    TMP DP  RH WIND       PRES   REMARKS
VICTORIA       CLEAR     41  37  86 NE6       30.19S WCI  37
6HR MIN TEMP:  41; 6HR MAX TEMP:  49;

*BEEVILLE      CLEAR     47  37  70 NE6       30.17S WCI  44
6HR MIN TEMP:  45; 6HR MAX TEMP:  54;

ROCKPORT       PTCLDY    54  47  77 NE7       30.17S
6HR MIN TEMP:  54; 6HR MAX TEMP:  58;

*PORT ARANSAS  NOT AVBL
*PORT LAVACA   CLEAR     50  39  66 NE6       30.18F WCI  47
6HR MIN TEMP:  48; 6HR MAX TEMP:  53;

*INGLESIDE     NOT AVBL
CORPUS CHRISTI PTCLDY    47  36  65 N6        30.17S WCI  44
6HR MIN TEMP:  46; 6HR MAX TEMP:  51;

CORPUS NAS     MOCLDY    62  48  60 N13       30.16R
6HR MIN TEMP:  61; 6HR MAX TEMP:  63;

*ROBSTOWN      CLEAR     47  41  80 N7        30.18S WCI  43
ALICE          CLEAR     46  39  76 NW5       30.17S WCI  44
6HR MIN TEMP:  45; 6HR MAX TEMP:  51;

KINGSVILLE NAS PTCLDY    46  42  86 NW6       30.17S WCI  43
6HR MIN TEMP:  44; 6HR MAX TEMP:  50;

COTULLA        CLOUDY    46  36  68 E6        30.17S WCI  43
6HR MIN TEMP:  45; 6HR MAX TEMP:  52;

*FAITH RANCH   CLEAR     45  39  81 E5        30.15S WCI  42
LAREDO         CLOUDY    50  39  66 CALM      30.16F
6HR MIN TEMP:  48; 6HR MAX TEMP:  55;

$$

TXZ248>255-201300-
DEEP SOUTH TEXAS

CITY           SKY/WX    TMP DP  RH WIND       PRES   REMARKS
BROWNSVILLE    CLOUDY    60  47  61 N8        30.13R
6HR MIN TEMP:  57; 6HR MAX TEMP:  61;

PORT ISABEL    CLOUDY    58  47  66 NW8       30.13R
6HR MIN TEMP:  55; 6HR MAX TEMP:  59;

*SOUTH PADRE   NOT AVBL
HARLINGEN      CLOUDY    57  46  66 N7        30.14R
6HR MIN T



USA.gov is the U.S. government's official web portal to all federal, state and local government web resources and services.